Location: Newark
(45.0242°N, 16.0939°E)
Time: 10:32:52
(UTC+00:00)

N. Korean satellite - Visible Passes

Search period start: 16 September 2019 00:00
Search period end: 26 September 2019 00:00
Orbit: 455 x 508 km, 97.2° (Epoch: 15 September)

Date Brightness Start Highest point End Pass type
(mag) Time Alt. Az. Time Alt. Az. Time Alt. Az.
19 Sep 10.1 03:53:01 10° ENE 03:54:31 12° E 03:55:59 10° ESE visible
22 Sep 9.6 04:09:45 10° NE 04:12:21 20° E 04:14:58 10° SE visible
23 Sep 10.6 03:46:46 10° E 03:46:56 10° E 03:47:05 10° E visible
